KD4TJG Weather Reports


Display with metric or nautical units.
time (UTC)temp
F
wind
direction
speed
MPH
gust
MPH
rain 1hr
in
rain 24hr
in
rain mn
in
humidity
%
barometer
mb
20260505221020 78 152 10.0 18.0 0.00 0.00 0.00 37 1012.9
20260505220518 78 135 9.0 18.0 0.00 0.00 0.00 38 1012.9
20260505220049 78 126 8.0 17.0 0.00 0.00 0.00 38 1012.9
20260505215518 77 179 8.0 19.0 0.00 0.00 0.00 38 1012.9
20260505215452 78 149 8.0 18.0 0.00 0.00 0.00 37 1015.0
20260505215017 78 164 9.0 19.0 0.00 0.00 0.00 37 1013.0
20260505214540 79 253 10.0 19.0 0.00 0.00 0.00 36 1013.0
20260505214501 79 169 5.0 18.0 0.00 0.00 0.00 36 1015.0
20260505214020 80 198 4.0 16.0 0.00 0.00 0.00 36 1013.0
20260505213523 80 189 7.0 16.0 0.00 0.00 0.00 36 1013.0
20260505213510 80 177 8.0 21.0 0.00 0.00 0.00 36 1015.0
20260505213040 80 180 8.0 16.0 0.00 0.00 0.00 36 1012.9
20260505212520 79 205 8.0 22.0 0.00 0.00 0.00 34 1012.8
20260505212456 80 195 8.0 21.0 0.00 0.00 0.00 34 1014.8
20260505212022 80 252 8.0 22.0 0.00 0.00 0.00 34 1012.9
20260505211534 80 190 6.0 17.0 0.00 0.00 0.00 36 1013.1
20260505211439 80 193 6.0 16.0 0.00 0.00 0.00 36 1015.0
20260505211021 79 190 6.0 18.0 0.00 0.00 0.00 37 1013.1
20260505210521 78 193 7.0 21.0 0.00 0.00 0.00 38 1013.3
20260505210408 78 189 7.0 23.0 0.00 0.00 0.00 37 1015.3
20260505210036 78 259 6.0 21.0 0.00 0.00 0.00 37 1013.1
20260505205518 79 205 7.0 26.0 0.00 0.00 0.00 36 1013.4
20260505205403 80 194 10.0 23.0 0.00 0.00 0.00 36 1015.3
20260505205018 80 186 12.0 26.0 0.00 0.00 0.00 35 1013.4
20260505204535 80 196 10.0 18.0 0.00 0.00 0.00 36 1013.3
20260505204427 80 178 9.0 19.0 0.00 0.00 0.00 36 1015.2
20260505204017 79 209 7.0 20.0 0.00 0.00 0.00 35 1013.2
20260505203517 80 213 10.0 20.0 0.00 0.00 0.00 36 1013.2
20260505203357 80 185 9.0 19.0 0.00 0.00 0.00 36 1015.3
20260505203041 80 191 12.0 20.0 0.00 0.00 0.00 35 1013.1
20260505202518 80 191 9.0 17.0 0.00 0.00 0.00 37 1013.2
20260505202336 80 124 8.0 16.0 0.00 0.00 0.00 35 1015.2
20260505202020 80 157 8.0 18.0 0.00 0.00 0.00 35 1013.3
20260505201540 79 173 8.0 18.0 0.00 0.00 0.00 36 1013.3
20260505201117 80 181 6.0 20.0 0.00 0.00 0.00 36 1013.2
20260505200521 80 192 9.0 20.0 0.00 0.00 0.00 35 1013.4
20260505200205 81 162 9.0 20.0 0.00 0.00 0.00 34 1015.5
20260505200042 80 167 9.0 20.0 0.00 0.00 0.00 34 1013.4
20260505195521 80 186 11.0 19.0 0.00 0.00 0.00 35 1013.6
20260505195222 81 200 9.0 20.0 0.00 0.00 0.00 35 1015.6
20260505195022 80 206 9.0 21.0 0.00 0.00 0.00 35 1013.6
20260505194544 80 141 10.0 21.0 0.00 0.00 0.00 33 1013.5
20260505194202 81 72 8.0 19.0 0.00 0.00 0.00 35 1015.7
20260505194021 80 167 7.0 17.0 0.00 0.00 0.00 34 1013.7
20260505193521 80 226 7.0 17.0 0.00 0.00 0.00 35 1013.8
20260505193212 82 218 6.0 21.0 0.00 0.00 0.00 34 1015.9
20260505193042 81 206 7.0 22.0 0.00 0.00 0.00 35 1013.8
20260505192522 80 247 7.0 22.0 0.00 0.00 0.00 35 1013.8
20260505192225 80 181 9.0 21.0 0.00 0.00 0.00 36 1016.0
20260505192023 79 191 10.0 22.0 0.00 0.00 0.00 36 1014.0
20260505191544 79 179 10.0 21.0 0.00 0.00 0.00 37 1014.1
20260505191231 79 154 8.0 17.0 0.00 0.00 0.00 37 1016.1
20260505191024 79 205 7.0 20.0 0.00 0.00 0.00 36 1014.1
20260505190522 79 174 8.0 20.0 0.00 0.00 0.00 35 1014.1
20260505190253 80 270 8.0 17.0 0.00 0.00 0.00 36 1016.3
20260505190043 79 134 10.0 20.0 0.00 0.00 0.00 35 1014.3
20260505185524 79 192 8.0 17.0 0.00 0.00 0.00 37 1014.1
20260505185224 80 193 8.0 15.0 0.00 0.00 0.00 37 1016.3
20260505185022 80 202 7.0 18.0 0.00 0.00 0.00 36 1014.3
20260505184541 80 203 9.0 18.0 0.00 0.00 0.00 38 1014.5
20260505184155 80 126 6.0 19.0 0.00 0.00 0.00 39 1016.7
20260505184022 80 154 5.0 15.0 0.00 0.00 0.00 37 1014.5
20260505183522 79 187 6.0 22.0 0.00 0.00 0.00 38 1014.7
20260505183202 79 149 8.0 19.0 0.00 0.00 0.00 38 1016.7
20260505183042 79 214 9.0 22.0 0.00 0.00 0.00 39 1014.8
20260505182522 79 153 7.0 18.0 0.00 0.00 0.00 38 1014.7
20260505182212 79 194 8.0 18.0 0.00 0.00 0.00 39 1016.8
20260505182022 79 179 8.0 17.0 0.00 0.00 0.00 38 1014.8
20260505181541 78 176 8.0 17.0 0.00 0.00 0.00 38 1014.8
20260505181201 79 191 8.0 18.0 0.00 0.00 0.00 37 1016.8
20260505181022 78 137 8.0 19.0 0.00 0.00 0.00 38 1014.9
20260505180523 79 135 10.0 19.0 0.00 0.00 0.00 36 1014.9
20260505180203 79 184 7.0 13.0 0.00 0.00 0.00 37 1016.8
20260505180047 79 272 7.0 14.0 0.00 0.00 0.00 36 1014.7
20260505175522 79 168 8.0 14.0 0.00 0.00 0.00 38 1014.9
20260505175022 78 203 5.0 14.0 0.00 0.00 0.00 39 1015.0
20260505174542 78 188 6.0 15.0 0.00 0.00 0.00 38 1015.0
20260505174022 77 174 5.0 15.0 0.00 0.00 0.00 39 1015.0
20260505174006 78 282 6.0 18.0 0.00 0.00 0.00 39 1017.0
20260505173521 78 193 8.0 15.0 0.00 0.00 0.00 38 1015.1
20260505173041 78 169 8.0 19.0 0.00 0.00 0.00 37 1015.1
20260505173025 79 185 6.0 18.0 0.00 0.00 0.00 38 1017.1
20260505172521 79 214 7.0 19.0 0.00 0.00 0.00 38 1015.2
20260505172024 78 150 3.0 16.0 0.00 0.00 0.00 40 1015.2
20260505172001 78 220 6.0 14.0 0.00 0.00 0.00 40 1017.3
20260505171540 77 156 7.0 16.0 0.00 0.00 0.00 40 1015.2
20260505171025 78 242 7.0 16.0 0.00 0.00 0.00 41 1015.3
20260505170931 78 115 6.0 14.0 0.00 0.00 0.00 42 1017.3
20260505170522 78 171 7.0 16.0 0.00 0.00 0.00 41 1015.4
20260505170039 78 264 8.0 16.0 0.00 0.00 0.00 40 1015.3
20260505165910 79 200 6.0 13.0 0.00 0.00 0.00 40 1017.6
20260505165522 78 155 5.0 14.0 0.00 0.00 0.00 43 1015.5
20260505165025 77 145 6.0 14.0 0.00 0.00 0.00 42 1015.6
20260505164534 77 164 6.0 15.0 0.00 0.00 0.00 41 1015.6
20260505164022 77 158 7.0 16.0 0.00 0.00 0.00 41 1015.6
20260505163750 78 259 5.0 14.0 0.00 0.00 0.00 40 1017.7
20260505163522 77 168 7.0 16.0 0.00 0.00 0.00 41 1015.6
20260505163042 77 168 3.0 16.0 0.00 0.00 0.00 42 1015.7
20260505162735 77 204 6.0 14.0 0.00 0.00 0.00 42 1017.8
20260505162528 77 211 9.0 16.0 0.00 0.00 0.00 42 1015.9
20260505162021 76 266 4.0 15.0 0.00 0.00 0.00 46 1015.8
20260505161738 77 257 5.0 14.0 0.00 0.00 0.00 43 1017.7
20260505161544 76 320 6.0 15.0 0.00 0.00 0.00 43 1015.9
20260505161022 76 208 5.0 15.0 0.00 0.00 0.00 46 1015.9
20260505160720 76 146 6.0 14.0 0.00 0.00 0.00 44 1018.0
20260505160526 76 199 9.0 15.0 0.00 0.00 0.00 44 1016.0
20260505153035 74 125 5.0 11.0 0.00 0.00 0.00 49 1016.3
20260505152604 74 317 5.0 11.0 0.00 0.00 0.00 51 1018.2
20260505152521 73 224 5.0 12.0 0.00 0.00 0.00 50 1016.2
20260505152023 73 170 7.0 12.0 0.00 0.00 0.00 51 1016.2
20260505151543 72 154 5.0 12.0 0.00 0.00 0.00 51 1016.2
20260505151530 73 154 4.0 11.0 0.00 0.00 0.00 51 1018.3
20260505151021 73 170 4.0 12.0 0.00 0.00 0.00 51 1016.2
20260505150524 73 170 5.0 10.0 0.00 0.00 0.00 52 1016.2
20260505140521 68 207 5.0 10.0 0.00 0.00 0.00 58 1016.2
20260505140216 68 176 4.0 11.0 0.00 0.00 0.00 58 1018.3
20260505125021 62 216 4.0 12.0 0.00 0.00 0.00 70 1016.2
20260505124947 62 224 4.0 11.0 0.00 0.00 0.00 70 1018.2
20260505124543 61 197 5.0 12.0 0.00 0.00 0.00 71 1016.1
20260505124023 61 155 4.0 12.0 0.00 0.00 0.00 72 1016.0
20260505123921 62 211 5.0 11.0 0.00 0.00 0.00 72 1018.0
20260505123521 61 233 7.0 12.0 0.00 0.00 0.00 72 1016.0
20260505123037 60 191 5.0 12.0 0.00 0.00 0.00 73 1015.9
20260505122930 61 158 5.0 11.0 0.00 0.00 0.00 73 1017.9
20260505122521 60 233 5.0 12.0 0.00 0.00 0.00 73 1015.8
20260505122022 59 198 5.0 12.0 0.00 0.00 0.00 74 1015.9
20260505121902 60 140 4.0 12.0 0.00 0.00 0.00 74 1017.8
20260505121544 59 192 5.0 13.0 0.00 0.00 0.00 74 1015.8
20260505121022 58 173 4.0 13.0 0.00 0.00 0.00 75 1015.8
20260505120852 59 156 5.0 12.0 0.00 0.00 0.00 75 1017.9
20260505120526 58 189 5.0 13.0 0.00 0.00 0.00 75 1015.9
20260505120041 58 203 5.0 13.0 0.00 0.00 0.00 75 1015.9
20260505115856 58 184 5.0 11.0 0.00 0.00 0.00 75 1017.9
20260505115521 58 180 5.0 12.0 0.00 0.00 0.00 76 1015.9
20260505115021 57 194 5.0 12.0 0.00 0.00 0.00 77 1015.9
20260505114540 57 175 3.0 8.0 0.00 0.00 0.00 78 1015.8
20260505114021 56 224 3.0 8.0 0.00 0.00 0.00 78 1015.8
20260505113728 56 145 3.0 7.0 0.00 0.00 0.00 79 1017.7
20260505113523 56 180 3.0 8.0 0.00 0.00 0.00 79 1015.7
20260505113039 55 205 3.0 8.0 0.00 0.00 0.00 79 1015.6
20260505112729 55 173 3.0 7.0 0.00 0.00 0.00 80 1017.7
20260505112522 55 110 3.0 8.0 0.00 0.00 0.00 80 1015.6
20260505112025 54 195 3.0 8.0 0.00 0.00 0.00 80 1015.5
20260505111656 54 189 1.0 5.0 0.00 0.00 0.00 81 1017.5
20260505111542 54 163 2.0 6.0 0.00 0.00 0.00 81 1015.4
20260505111025 53 173 2.0 5.0 0.00 0.00 0.00 81 1015.4
20260505110715 54 197 1.0 3.0 0.00 0.00 0.00 81 1017.5
20260505110522 53 167 2.0 5.0 0.00 0.00 0.00 81 1015.5
20260505102021 53 168 2.0 4.0 0.00 0.00 0.00 79 1015.5
20260505101542 53 180 1.0 4.0 0.00 0.00 0.00 79 1015.5
20260505101454 54 164 1.0 3.0 0.00 0.00 0.00 79 1017.5
20260505101023 53 162 1.0 3.0 0.00 0.00 0.00 79 1015.4
20260505100521 53 160 1.0 3.0 0.00 0.00 0.00 79 1015.3
20260505100432 54 168 0.0 2.0 0.00 0.00 0.00 79 1017.3
20260505100036 53 0 1.0 4.0 0.00 0.00 0.00 78 1015.2
20260505095521 54 229 0.0 4.0 0.00 0.00 0.00 78 1015.1
20260505095403 54 166 1.0 3.0 0.00 0.00 0.00 78 1017.1
20260505095021 54 208 1.0 4.0 0.00 0.00 0.00 78 1015.1
20260505094541 54 169 1.0 4.0 0.00 0.00 0.00 78 1015.0
20260505094342 54 164 1.0 5.0 0.00 0.00 0.00 78 1017.1
20260505094021 53 184 1.0 6.0 0.00 0.00 0.00 79 1015.1
20260505093521 53 178 2.0 6.0 0.00 0.00 0.00 79 1015.1
20260505093347 54 168 1.0 5.0 0.00 0.00 0.00 78 1017.0
20260505093041 53 168 1.0 6.0 0.00 0.00 0.00 78 1015.0
20260505092521 53 170 1.0 3.0 0.00 0.00 0.00 77 1015.0
20260505092332 54 169 1.0 5.0 0.00 0.00 0.00 77 1017.0
20260505092021 54 172 1.0 3.0 0.00 0.00 0.00 77 1015.1
20260505091536 54 189 1.0 7.0 0.00 0.00 0.00 76 1015.0
20260505091308 55 155 1.0 5.0 0.00 0.00 0.00 76 1017.0
20260505091021 54 188 1.0 7.0 0.00 0.00 0.00 76 1014.9
20260505090521 54 186 2.0 7.0 0.00 0.00 0.00 76 1014.9
20260505090046 54 175 1.0 3.0 0.00 0.00 0.00 75 1014.9
20260505085524 55 201 1.0 4.0 0.00 0.00 0.00 75 1014.9
20260505085021 55 174 1.0 4.0 0.00 0.00 0.00 74 1014.8
20260505084552 55 183 1.0 4.0 0.00 0.00 0.00 73 1014.8
20260505084018 55 209 2.0 4.0 0.00 0.00 0.00 73 1014.7
20260505084010 56 215 1.0 3.0 0.00 0.00 0.00 73 1016.7
20260505083525 56 191 2.0 4.0 0.00 0.00 0.00 72 1014.7
20260505083054 56 179 1.0 6.0 0.00 0.00 0.00 72 1014.6
20260505082521 56 175 2.0 6.0 0.00 0.00 0.00 71 1014.5
20260505082021 56 181 2.0 7.0 0.00 0.00 0.00 71 1014.5
20260505081809 57 201 2.0 5.0 0.00 0.00 0.00 71 1016.5
20260505081544 56 174 1.0 7.0 0.00 0.00 0.00 70 1014.5
20260505081023 56 149 3.0 7.0 0.00 0.00 0.00 70 1014.4
20260505080806 57 190 2.0 6.0 0.00 0.00 0.00 69 1016.5
20260505080521 57 186 2.0 7.0 0.00 0.00 0.00 69 1014.5
20260505080047 57 174 3.0 7.0 0.00 0.00 0.00 68 1014.4
20260505075521 57 219 3.0 10.0 0.00 0.00 0.00 67 1014.4
20260505075021 57 166 4.0 10.0 0.00 0.00 0.00 67 1014.3
20260505074637 58 186 3.0 9.0 0.00 0.00 0.00 67 1016.3
20260505074543 58 161 4.0 9.0 0.00 0.00 0.00 67 1014.3
20260505074018 58 185 3.0 10.0 0.00 0.00 0.00 66 1014.3
20260505073654 58 191 4.0 9.0 0.00 0.00 0.00 66 1016.3
20260505073521 58 178 4.0 10.0 0.00 0.00 0.00 66 1014.3
20260505073045 58 99 4.0 9.0 0.00 0.00 0.00 65 1014.1
20260505072705 58 165 3.0 8.0 0.00 0.00 0.00 65 1016.2
20260505072521 58 183 2.0 9.0 0.00 0.00 0.00 65 1014.2
20260505072021 58 190 4.0 9.0 0.00 0.00 0.00 65 1014.1
20260505071547 58 156 3.0 8.0 0.00 0.00 0.00 64 1014.1
20260505071021 58 189 2.0 9.0 0.00 0.00 0.00 64 1014.1
20260505070524 58 203 3.0 7.0 0.00 0.00 0.00 64 1016.1
20260505070521 58 203 3.0 9.0 0.00 0.00 0.00 64 1014.1
20260505070040 58 220 4.0 8.0 0.00 0.00 0.00 63 1014.1
20260505065521 58 191 4.0 8.0 0.00 0.00 0.00 63 1014.1
20260505065511 58 197 2.0 6.0 0.00 0.00 0.00 63 1016.2
20260505065021 58 219 2.0 6.0 0.00 0.00 0.00 62 1014.1
20260505064537 58 175 1.0 7.0 0.00 0.00 0.00 62 1014.1
20260505064451 58 164 1.0 5.0 0.00 0.00 0.00 62 1016.1
20260505064023 58 154 3.0 7.0 0.00 0.00 0.00 62 1014.0
20260505063521 58 185 2.0 6.0 0.00 0.00 0.00 62 1014.0
20260505063507 58 186 1.0 3.0 0.00 0.00 0.00 61 1016.0
20260505063042 58 165 1.0 3.0 0.00 0.00 0.00 61 1014.0
20260505062521 58 140 1.0 3.0 0.00 0.00 0.00 60 1014.0
20260505062444 59 151 0.0 2.0 0.00 0.00 0.00 60 1016.0
20260505062021 58 171 1.0 5.0 0.00 0.00 0.00 60 1014.1
20260505061542 59 204 1.0 5.0 0.00 0.00 0.00 58 1014.0
20260505061439 59 202 1.0 3.0 0.00 0.00 0.00 58 1016.1
20260505061020 59 146 1.0 4.0 0.00 0.00 0.00 57 1014.0
20260505060521 59 162 1.0 4.0 0.00 0.00 0.00 56 1014.2
20260505060438 60 196 1.0 5.0 0.00 0.00 0.00 56 1016.1
20260505060045 60 175 2.0 4.0 0.00 0.00 0.00 56 1014.2
20260505055521 60 0 2.0 7.0 0.00 0.00 0.00 55 1014.1
20260505055459 61 187 1.0 5.0 0.00 0.00 0.00 55 1016.1
20260505055020 60 166 2.0 7.0 0.00 0.00 0.00 54 1014.1
20260505054549 60 149 1.0 6.0 0.00 0.00 0.00 54 1014.1
20260505054452 61 141 1.0 4.0 0.00 0.00 0.00 54 1016.1
20260505054017 61 165 2.0 6.0 0.00 0.00 0.00 53 1014.1
20260505053520 61 193 2.0 7.0 0.00 0.00 0.00 52 1014.1
20260505053430 62 178 2.0 8.0 0.00 0.00 0.00 52 1016.1
20260505053036 61 205 3.0 9.0 0.00 0.00 0.00 52 1014.1
20260505052521 61 154 4.0 9.0 0.00 0.00 0.00 52 1014.1
20260505052436 62 160 3.0 8.0 0.00 0.00 0.00 52 1016.0
20260505052021 61 0 3.0 8.0 0.00 0.00 0.00 52 1014.1
20260505051542 61 147 2.0 7.0 0.00 0.00 0.00 52 1014.1
20260505051422 62 159 2.0 7.0 0.00 0.00 0.00 52 1016.1
20260505051021 61 168 3.0 7.0 0.00 0.00 0.00 51 1014.1
20260505050520 62 164 2.0 8.0 0.00 0.00 0.00 51 1014.1
20260505041539 62 203 2.0 10.0 0.00 0.00 0.00 49 1014.1
20260505041239 63 147 2.0 6.0 0.00 0.00 0.00 49 1016.2
20260505041021 62 146 2.0 7.0 0.00 0.00 0.00 49 1014.2
20260505040521 62 135 3.0 7.0 0.00 0.00 0.00 49 1014.1
20260505040228 62 139 1.0 6.0 0.00 0.00 0.00 50 1016.2
20260505040037 62 208 2.0 6.0 0.00 0.00 0.00 50 1014.1
20260505035524 61 188 2.0 6.0 0.00 0.00 0.00 51 1014.1
20260505035242 61 163 1.0 5.0 0.00 0.00 0.00 52 1016.3
20260505035021 61 168 1.0 5.0 0.00 0.00 0.00 51 1014.2
20260505034542 61 149 1.0 5.0 0.00 0.00 0.00 50 1014.3
20260505034207 62 196 0.0 0.0 0.00 0.00 0.00 50 1016.2
20260505034021 62 0 0.0 2.0 0.00 0.00 0.00 50 1014.3
20260505033523 63 196 0.0 4.0 0.00 0.00 0.00 48 1014.2
20260505033149 64 196 1.0 3.0 0.00 0.00 0.00 48 1016.3
20260505033043 63 197 1.0 6.0 0.00 0.00 0.00 48 1014.2
20260505032521 63 199 2.0 6.0 0.00 0.00 0.00 47 1014.3
20260505032206 64 171 1.0 5.0 0.00 0.00 0.00 47 1016.4
20260505032020 64 159 1.0 6.0 0.00 0.00 0.00 47 1014.2
20260505031553 64 186 1.0 6.0 0.00 0.00 0.00 46 1014.2
20260505031223 65 154 1.0 5.0 0.00 0.00 0.00 46 1016.4
20260505031022 64 166 1.0 4.0 0.00 0.00 0.00 46 1014.3
20260505030521 64 133 2.0 4.0 0.00 0.00 0.00 46 1014.3
20260505030235 65 144 1.0 3.0 0.00 0.00 0.00 45 1016.3
20260505030045 64 157 1.0 5.0 0.00 0.00 0.00 45 1014.3
20260505025522 64 193 2.0 5.0 0.00 0.00 0.00 45 1014.3
20260505025251 65 169 1.0 5.0 0.00 0.00 0.00 45 1016.3
20260505025021 64 193 2.0 6.0 0.00 0.00 0.00 45 1014.3
20260505024546 64 174 1.0 6.0 0.00 0.00 0.00 45 1014.3
20260505024234 65 147 1.0 5.0 0.00 0.00 0.00 45 1016.3
20260505024024 65 227 1.0 7.0 0.00 0.00 0.00 45 1014.3
20260505023521 65 150 3.0 7.0 0.00 0.00 0.00 45 1014.2
20260505023041 65 0 1.0 4.0 0.00 0.00 0.00 45 1014.2
20260505022521 65 129 1.0 6.0 0.00 0.00 0.00 44 1014.2
20260505022021 65 143 2.0 6.0 0.00 0.00 0.00 43 1014.2
20260505021542 66 153 1.0 6.0 0.00 0.00 0.00 43 1014.1
20260505021023 66 134 2.0 6.0 0.00 0.00 0.00 43 1014.2
20260505020521 66 133 2.0 6.0 0.00 0.00 0.00 43 1014.0
20260505020042 66 145 2.0 5.0 0.00 0.00 0.00 43 1014.1
20260505015856 66 137 1.0 2.0 0.00 0.00 0.00 44 1016.1
20260505015521 66 171 2.0 6.0 0.00 0.00 0.00 44 1014.1
20260505015019 66 178 1.0 6.0 0.00 0.00 0.00 44 1014.0
20260505014913 67 189 1.0 5.0 0.00 0.00 0.00 44 1016.1
20260505014600 67 171 2.0 6.0 0.00 0.00 0.00 43 1014.1
20260505014023 67 202 2.0 8.0 0.00 0.00 0.00 43 1014.0
20260505013938 67 177 2.0 7.0 0.00 0.00 0.00 43 1016.0
20260505013521 67 167 3.0 8.0 0.00 0.00 0.00 43 1013.9
20260505013042 66 206 3.0 8.0 0.00 0.00 0.00 44 1013.8
20260505012954 67 161 2.0 7.0 0.00 0.00 0.00 44 1015.8
20260505012521 65 147 3.0 7.0 0.00 0.00 0.00 47 1013.7
20260505012021 65 158 1.0 3.0 0.00 0.00 0.00 48 1013.7
20260505011934 65 164 1.0 3.0 0.00 0.00 0.00 48 1015.8
20260505011545 65 125 1.0 4.0 0.00 0.00 0.00 48 1013.6
20260505011021 66 160 1.0 4.0 0.00 0.00 0.00 46 1013.6
20260505010521 66 145 2.0 5.0 0.00 0.00 0.00 47 1013.6
20260505010045 66 162 1.0 6.0 0.00 0.00 0.00 46 1013.5
20260505005521 67 194 2.0 6.0 0.00 0.00 0.00 45 1013.4
20260505005021 67 201 2.0 7.0 0.00 0.00 0.00 44 1013.5
20260505004758 68 164 1.0 6.0 0.00 0.00 0.00 44 1015.5
20260505004541 67 124 2.0 7.0 0.00 0.00 0.00 44 1013.4
20260505004021 67 147 2.0 7.0 0.00 0.00 0.00 45 1013.3
20260505003801 68 149 1.0 6.0 0.00 0.00 0.00 45 1015.3
20260505003525 67 172 1.0 4.0 0.00 0.00 0.00 45 1013.3
20260505003042 67 123 2.0 4.0 0.00 0.00 0.00 45 1013.2
20260505002747 68 156 1.0 2.0 0.00 0.00 0.00 44 1015.3
20260505002521 68 149 1.0 4.0 0.00 0.00 0.00 45 1013.3
20260505002022 69 153 1.0 3.0 0.00 0.00 0.00 44 1013.2
20260505001749 70 139 0.0 2.0 0.00 0.00 0.00 42 1015.3
20260505001545 70 139 1.0 3.0 0.00 0.00 0.00 42 1013.2
20260505001020 70 172 0.0 3.0 0.00 0.00 0.00 41 1013.2
20260505000810 71 189 1.0 4.0 0.00 0.00 0.00 41 1015.2
20260505000521 71 187 2.0 5.0 0.00 0.00 0.00 40 1013.2
20260505000044 71 171 1.0 5.0 0.00 0.00 0.00 39 1013.2
20260504235739 72 145 1.0 4.0 0.00 0.00 0.00 39 1015.1
20260504235521 72 159 2.0 4.0 0.00 0.00 0.00 39 1013.2
20260504235021 72 126 1.0 4.0 0.00 0.00 0.00 39 1013.0
20260504234754 73 156 1.0 11.0 0.00 0.00 0.00 38 1015.1
20260504234535 72 178 1.0 9.0 0.00 0.00 0.00 38 1013.1
20260504234021 73 175 2.0 12.0 0.00 0.00 0.00 37 1012.9
20260504233813 73 185 3.0 11.0 0.00 0.00 0.00 37 1014.9
20260504233520 73 149 1.0 12.0 0.00 0.00 0.00 38 1012.9
20260504233034 74 195 4.0 9.0 0.00 0.00 0.00 37 1012.9
20260504232818 74 93 3.0 7.0 0.00 0.00 0.00 37 1014.8
20260504232521 74 156 4.0 9.0 0.00 0.00 0.00 37 1012.8
20260504232020 74 156 3.0 8.0 0.00 0.00 0.00 36 1012.8
20260504231820 75 154 3.0 10.0 0.00 0.00 0.00 36 1014.7
20260504231541 75 181 3.0 11.0 0.00 0.00 0.00 35 1012.7
20260504231021 75 220 5.0 11.0 0.00 0.00 0.00 35 1012.8
20260504230823 76 178 3.0 10.0 0.00 0.00 0.00 35 1014.7
20260504230521 75 264 4.0 9.0 0.00 0.00 0.00 35 1012.8
20260504230046 75 114 2.0 8.0 0.00 0.00 0.00 35 1012.8
20260504225816 76 177 2.0 7.0 0.00 0.00 0.00 35 1014.7
20260504225522 76 156 3.0 8.0 0.00 0.00 0.00 35 1012.7
20260504225021 76 214 2.0 12.0 0.00 0.00 0.00 34 1012.7
20260504224822 76 193 4.0 16.0 0.00 0.00 0.00 34 1014.8
20260504224545 76 149 4.0 17.0 0.00 0.00 0.00 34 1012.8
20260504224021 76 222 5.0 17.0 0.00 0.00 0.00 34 1012.8
20260504223521 76 114 3.0 12.0 0.00 0.00 0.00 35 1012.8
20260504223040 77 157 6.0 12.0 0.00 0.00 0.00 35 1012.9
20260504222638 77 206 4.0 11.0 0.00 0.00 0.00 35 1014.9
20260504222521 77 242 5.0 12.0 0.00 0.00 0.00 34 1012.7
20260504222023 77 217 6.0 12.0 0.00 0.00 0.00 35 1012.8
20260504221646 78 177 4.0 11.0 0.00 0.00 0.00 35 1014.9
20260504221544 77 204 3.0 12.0 0.00 0.00 0.00 34 1012.8